Location: Bamazo
(6.7448°N, 10.8189°W)
Time: 00:47:02
(UTC+00:00)

GPS 2-17 Rocket1 - Pass Details

Date: 18 September 2020
Orbit: 571 x 659 km, 20.3° (Epoch: 20 October)

Event Time Altitude Azimuth Distance (km) Brightness Sun altitude
Rises 19:45:22 0° 265° (W) 2,869 8.2 -16.8°
Reaches altitude 10° 19:47:48 10° 273° (W) 1,979 7.0 -17.4°
Maximum altitude 19:52:10 41° 343° (NNW) 921 4.1 -18.4°
Enters shadow 19:54:36 23° 39° (NE) 1,345 4.5 -19.0°
